EW7234 Weather Reports


time (UTC)temp
C
wind
direction
speed
KPH
gust
KPH
rain 1hr
cm
rain 24hr
cm
rain mn
cm
humidity
%
barometer
mb
20260504151004 17 279 3.2 9.7 0.00 0.00 0.00 46 1006.3
20260504150504 17 291 3.2 9.7 0.00 0.00 0.00 47 1006.3
20260504141004 13 288 3.2 9.7 0.00 0.00 0.00 61 1006.6
20260504140504 13 291 4.8 9.7 0.00 0.00 0.00 62 1006.7
20260504110503 6 0 0.0 0.0 0.00 0.00 0.00 84 1006.2
20260504100504 7 0 0.0 0.0 0.00 0.00 0.00 80 1006.2
20260504082005 8 0 0.0 0.0 0.00 0.00 0.00 76 1006.9
20260504081504 8 0 0.0 0.0 0.00 0.00 0.00 76 1006.9
20260504081004 8 0 0.0 0.0 0.00 0.00 0.00 76 1007.0
20260504080505 8 0 0.0 0.0 0.00 0.00 0.00 76 1007.0
20260504045505 14 80 0.0 4.8 0.00 0.00 0.00 54 1008.7
20260504045004 14 95 0.0 1.6 0.00 0.00 0.00 52 1008.7
20260504044505 14 0 0.0 0.0 0.00 0.00 0.00 52 1008.7
20260504044004 14 93 1.6 9.7 0.00 0.00 0.00 53 1008.7
20260504043505 14 97 1.6 9.7 0.00 0.00 0.00 53 1008.8
20260504043006 13 104 0.0 4.8 0.00 0.00 0.00 53 1009.3
20260504042505 13 118 0.0 1.6 0.00 0.00 0.00 54 1009.6
20260504042005 13 118 0.0 1.6 0.00 0.00 0.00 54 1009.8
20260504041505 13 0 0.0 0.0 0.00 0.00 0.00 54 1009.6
20260504041004 14 118 0.0 3.2 0.00 0.00 0.00 54 1009.4
20260504040504 14 118 0.0 3.2 0.00 0.00 0.00 53 1009.4
20260504035504 15 0 0.0 0.0 0.00 0.00 0.00 50 1009.2
20260504035005 15 0 0.0 0.0 0.00 0.00 0.00 50 1009.3
20260504034505 15 0 0.0 0.0 0.00 0.00 0.00 49 1009.1
20260504034005 15 0 0.0 0.0 0.00 0.00 0.00 49 1009.1
20260504033504 15 118 0.0 1.6 0.00 0.00 0.00 48 1009.2
20260504033004 16 118 0.0 1.6 0.00 0.00 0.00 48 1009.1
20260504032504 16 118 0.0 3.2 0.00 0.00 0.00 48 1009.1
20260504031505 16 118 0.0 1.6 0.00 0.00 0.00 46 1009.0
20260504025504 17 0 0.0 0.0 0.00 0.00 0.00 43 1008.8
20260504025005 17 0 0.0 0.0 0.00 0.00 0.00 41 1008.6
20260504024505 17 0 0.0 0.0 0.00 0.00 0.00 40 1008.4
20260504024005 17 0 0.0 0.0 0.00 0.00 0.00 40 1008.4
20260504023004 18 0 0.0 0.0 0.00 0.00 0.00 38 1008.2
20260504022505 18 117 0.0 1.6 0.00 0.00 0.00 38 1008.2
20260504022004 18 118 0.0 1.6 0.00 0.00 0.00 37 1008.2
20260504021504 19 118 0.0 3.2 0.00 0.00 0.00 37 1008.1
20260504021005 19 118 0.0 3.2 0.00 0.00 0.00 37 1008.0
20260504020504 19 118 0.0 1.6 0.00 0.00 0.00 37 1008.0
20260504020004 19 118 0.0 3.2 0.00 0.00 0.00 36 1007.9
20260504015504 20 118 0.0 3.2 0.00 0.00 0.00 36 1008.0
20260504015005 20 118 0.0 3.2 0.00 0.00 0.00 35 1008.0
20260504014505 20 118 0.0 1.6 0.00 0.00 0.00 35 1008.0
20260504014004 20 118 0.0 1.6 0.00 0.00 0.00 34 1008.1
20260504013504 21 118 0.0 1.6 0.00 0.00 0.00 33 1008.1
20260504013005 21 93 0.0 6.4 0.00 0.00 0.00 33 1008.4
20260504012504 21 93 0.0 6.4 0.00 0.00 0.00 32 1008.5
20260504011505 22 91 0.0 4.8 0.00 0.00 0.00 31 1008.4
20260504011004 22 90 0.0 4.8 0.00 0.00 0.00 30 1008.4
20260504010504 22 93 0.0 4.8 0.00 0.00 0.00 29 1008.5
20260504010005 22 92 1.6 8.0 0.00 0.00 0.00 29 1008.6
20260504005504 22 86 1.6 8.0 0.00 0.00 0.00 29 1008.7
20260504005004 23 86 1.6 8.0 0.00 0.00 0.00 28 1008.7
20260504004505 23 88 0.0 6.4 0.00 0.00 0.00 28 1008.7
20260504003504 23 176 0.0 4.8 0.00 0.00 0.00 28 1009.0
20260504003004 23 85 0.0 4.8 0.00 0.00 0.00 28 1009.0
20260504002004 23 136 0.0 4.8 0.00 0.00 0.00 29 1009.2
20260504001505 23 131 0.0 4.8 0.00 0.00 0.00 29 1009.1
20260504000504 22 98 0.0 6.4 0.00 0.00 0.00 29 1009.2
20260504000005 22 88 1.6 8.0 0.00 0.00 0.00 29 1009.4
20260503235504 22 76 4.8 9.7 0.00 0.00 0.00 29 1009.5
20260503235005 22 77 6.4 11.3 0.00 0.00 0.00 29 1009.5
20260503234505 22 82 4.8 11.3 0.00 0.00 0.00 29 1009.6
20260503234004 22 74 1.6 8.0 0.00 0.00 0.00 29 1009.7
20260503233505 23 56 3.2 8.0 0.00 0.00 0.00 29 1009.7
20260503233004 23 64 1.6 8.0 0.00 0.00 0.00 28 1009.8
20260503232504 23 81 1.6 9.7 0.00 0.00 0.00 29 1009.9
20260503231505 23 71 4.8 9.7 0.00 0.00 0.00 28 1010.0
20260503231004 23 80 3.2 11.3 0.00 0.00 0.00 28 1010.0
20260503230504 23 45 1.6 11.3 0.00 0.00 0.00 28 1010.0
20260503230004 23 351 1.6 6.4 0.00 0.00 0.00 27 1010.2
20260503225505 23 347 1.6 6.4 0.00 0.00 0.00 27 1010.3
20260503225005 23 8 1.6 6.4 0.00 0.00 0.00 27 1010.3
20260503224504 23 8 1.6 6.4 0.00 0.00 0.00 27 1010.3
20260503224004 23 307 1.6 8.0 0.00 0.00 0.00 27 1010.3
20260503223504 23 342 1.6 8.0 0.00 0.00 0.00 27 1010.4
20260503222005 23 73 6.4 12.9 0.00 0.00 0.00 30 1010.7
20260503221505 23 64 6.4 12.9 0.00 0.00 0.00 28 1010.7
20260503221005 23 60 3.2 14.5 0.00 0.00 0.00 29 1010.8
20260503220504 22 60 4.8 14.5 0.00 0.00 0.00 28 1010.9
20260503220004 22 49 4.8 14.5 0.00 0.00 0.00 29 1011.0
20260503214504 22 38 4.8 11.3 0.00 0.00 0.00 29 1011.2
20260503214004 22 8 6.4 12.9 0.00 0.00 0.00 28 1011.4
20260503213504 22 32 6.4 14.5 0.00 0.00 0.00 28 1011.5
20260503213004 22 62 8.0 19.3 0.00 0.00 0.00 29 1011.5
20260503212505 22 51 9.7 19.3 0.00 0.00 0.00 29 1011.5
20260503212004 22 52 9.7 17.7 0.00 0.00 0.00 28 1011.6
20260503211504 23 40 8.0 16.1 0.00 0.00 0.00 29 1011.6
20260503211004 23 337 4.8 12.9 0.00 0.00 0.00 29 1011.7
20260503210504 23 336 3.2 11.3 0.00 0.00 0.00 29 1011.8
20260503210005 22 18 3.2 11.3 0.00 0.00 0.00 28 1012.0
20260503205504 22 21 3.2 11.3 0.00 0.00 0.00 29 1012.0
20260503205004 22 312 1.6 8.0 0.00 0.00 0.00 27 1012.1
20260503204504 23 315 3.2 11.3 0.00 0.00 0.00 28 1012.2
20260503204004 23 306 4.8 12.9 0.00 0.00 0.00 28 1012.2
20260503203504 23 339 6.4 14.5 0.00 0.00 0.00 28 1012.3
20260503203004 22 41 6.4 14.5 0.00 0.00 0.00 28 1012.3
20260503202504 23 71 3.2 14.5 0.00 0.00 0.00 28 1012.4
20260503202005 23 208 3.2 11.3 0.00 0.00 0.00 28 1012.4
20260503201005 23 170 3.2 11.3 0.00 0.00 0.00 29 1012.4
20260503200504 23 176 1.6 9.7 0.00 0.00 0.00 29 1012.6
20260503200004 22 102 3.2 12.9 0.00 0.00 0.00 30 1012.4
20260503195504 22 87 3.2 12.9 0.00 0.00 0.00 30 1012.4
20260503194505 22 87 4.8 17.7 0.00 0.00 0.00 29 1012.5
20260503194004 22 82 8.0 17.7 0.00 0.00 0.00 29 1012.5
20260503193504 22 79 8.0 17.7 0.00 0.00 0.00 29 1012.5
20260503193004 22 66 3.2 14.5 0.00 0.00 0.00 29 1012.5
20260503192504 22 88 3.2 14.5 0.00 0.00 0.00 28 1012.7
20260503192005 22 96 6.4 14.5 0.00 0.00 0.00 29 1012.6
20260503191505 22 86 8.0 16.1 0.00 0.00 0.00 31 1012.8
20260503190504 22 83 1.6 11.3 0.00 0.00 0.00 30 1012.9
20260503190004 22 51 4.8 9.7 0.00 0.00 0.00 33 1013.1
20260503185504 22 67 8.0 20.9 0.00 0.00 0.00 30 1013.1
20260503185004 22 77 8.0 20.9 0.00 0.00 0.00 30 1013.2
20260503184505 22 62 8.0 16.1 0.00 0.00 0.00 32 1013.3
20260503184004 22 64 8.0 16.1 0.00 0.00 0.00 30 1013.3
20260503183504 22 90 3.2 12.9 0.00 0.00 0.00 31 1013.4
20260503183004 22 86 4.8 14.5 0.00 0.00 0.00 30 1013.5
20260503182505 22 69 4.8 14.5 0.00 0.00 0.00 30 1013.5
20260503182006 22 54 1.6 9.7 0.00 0.00 0.00 29 1013.6
20260503181505 22 79 4.8 14.5 0.00 0.00 0.00 31 1013.8
20260503181004 21 92 6.4 14.5 0.00 0.00 0.00 30 1013.8
20260503180004 21 73 8.0 20.9 0.00 0.00 0.00 32 1014.0
20260503175504 21 51 8.0 17.7 0.00 0.00 0.00 32 1014.0
20260503175004 21 55 11.3 19.3 0.00 0.00 0.00 31 1014.1
20260503174004 21 77 8.0 22.5 0.00 0.00 0.00 32 1014.3
20260503173004 20 72 11.3 17.7 0.00 0.00 0.00 32 1014.6
20260503172504 20 60 11.3 20.9 0.00 0.00 0.00 33 1014.7
20260503172004 20 61 12.9 20.9 0.00 0.00 0.00 32 1014.8
20260503171505 20 74 11.3 17.7 0.00 0.00 0.00 33 1014.9
20260503171004 20 73 11.3 22.5 0.00 0.00 0.00 33 1014.9
20260503170504 20 57 11.3 22.5 0.00 0.00 0.00 34 1015.0